Location: Montclair
(37.8322°N, 122.2092°W)
Time: 20:25:20
(UTC+00:00)

Cosmos 540 Rocket - Visible Passes

Search period start: 16 March 2026 00:00
Search period end: 26 March 2026 00:00
Orbit: 735 x 747 km, 74.1° (Epoch: 16 March)

Date Brightness Start Highest point End Pass type
(mag) Time Alt. Az. Time Alt. Az. Time Alt. Az.
16 Mar 3.6 03:57:30 10° NNW 04:02:37 71° WSW 04:06:07 20° S visible
17 Mar 3.6 03:12:26 10° N 03:17:29 54° ENE 03:22:29 10° SSE visible
17 Mar 6.1 04:55:30 10° WNW 04:58:25 15° W 05:01:19 10° SW visible
18 Mar 5.1 04:09:03 10° NW 04:13:36 33° W 04:18:08 10° SSW visible
19 Mar 3.7 03:23:31 10° NNW 03:28:38 71° WSW 03:33:44 10° S visible
20 Mar 3.6 02:38:27 10° N 02:43:30 54° ENE 02:48:31 10° SSE visible
20 Mar 6.2 04:21:30 10° WNW 04:24:25 15° W 04:27:21 10° SW visible
21 Mar 5.2 03:35:04 10° NW 03:39:37 33° W 03:44:10 10° SSW visible
22 Mar 3.8 02:49:31 10° NNW 02:54:39 72° WSW 02:59:45 10° S visible
23 Mar 6.4 03:47:30 10° WNW 03:50:26 15° W 03:53:22 10° SW visible
24 Mar 5.4 03:01:04 10° NW 03:05:38 33° W 03:10:11 10° SSW visible
